This is the latest recevied weather packets stored in our database for station/object KD9CCP. If no packets are shown the sender has not sent any weather packets the latest 1 day(s).
| Time | Temp. | Humidity | Pressure | Rain* | Wind** | Luminosity | Snow |
|---|---|---|---|---|---|---|---|
| 1777988087 | 3.33° C | 72% | 1007 hPa | 0 mm | 1.79 m/s, 249° | 50 W/m² | - |
| 1777987783 | 3.33° C | 69% | 1007.2 hPa | 0 mm | 0.89 m/s, 340° | 36 W/m² | - |
| 1777987480 | 3.33° C | 70% | 1007 hPa | 0 mm | 0.45 m/s, 357° | 51 W/m² | - |
| 1777987178 | 3.33° C | 71% | 1006.9 hPa | 0 mm | 0.89 m/s, 312° | 47 W/m² | - |
| 1777986874 | 2.78° C | 70% | 1007 hPa | 0 mm | 0 m/s | 45 W/m² | - |
| 1777986572 | 2.78° C | 70% | 1006.8 hPa | 0 mm | 0 m/s | 41 W/m² | - |
| 1777986270 | 2.78° C | 71% | 1006.8 hPa | 0 mm | 0.45 m/s, 355° | 32 W/m² | - |
| 1777985967 | 2.78° C | 72% | 1006.7 hPa | 0 mm | 0.45 m/s, 349° | 22 W/m² | - |
| 1777985664 | 2.78° C | 69% | 1006.8 hPa | 0 mm | 0.89 m/s, 359° | 23 W/m² | - |
| 1777985361 | 2.78° C | 70% | 1006.8 hPa | 0 mm | 0 m/s | 16 W/m² | - |
| 1777985058 | 2.78° C | 70% | 1006.7 hPa | 0 mm | 0.45 m/s, 347° | 24 W/m² | - |
| 1777984754 | 2.78° C | 71% | 1006.8 hPa | 0 mm | 0.45 m/s, 351° | 17 W/m² | - |
| 1777984451 | 2.78° C | 69% | 1006.7 hPa | 0 mm | 0.45 m/s, 356° | 13 W/m² | - |
| 1777984146 | 3.33° C | 71% | 1006.8 hPa | 0 mm | 0.45 m/s, 349° | 10 W/m² | - |
| 1777983844 | 3.33° C | 71% | 1006.6 hPa | 0 mm | 0.89 m/s, 309° | 22 W/m² | - |
| 1777983540 | 3.33° C | 72% | 1006.7 hPa | 0 mm | 0.89 m/s, 327° | 27 W/m² | - |
| 1777983238 | 3.33° C | 76% | 1006.4 hPa | 0 mm | 1.34 m/s, 286° | 26 W/m² | - |
| 1777982933 | 2.78° C | 74% | 1006.6 hPa | 0 mm | 0.45 m/s, 323° | 18 W/m² | - |
| 1777982630 | 2.78° C | 72% | 1006.4 hPa | 0 mm | 1.79 m/s, 276° | 14 W/m² | - |
| 1777982328 | 2.78° C | 71% | 1006.1 hPa | 0 mm | 1.34 m/s, 6° | 13 W/m² | - |
| 1777982026 | 2.78° C | 74% | 1006 hPa | 0 mm | 0.45 m/s, 341° | 12 W/m² | - |
| 1777981724 | 2.22° C | 72% | 1006.1 hPa | 0 mm | 0.89 m/s, 2° | 12 W/m² | - |
| 1777981420 | 2.78° C | 72% | 1006.1 hPa | 0 mm | 0 m/s | 8 W/m² | - |
| 1777981116 | 2.78° C | 73% | 1005.9 hPa | 0 mm | 0.89 m/s, 340° | 8 W/m² | - |
| 1777980813 | 2.78° C | 73% | 1005.9 hPa | 0 mm | 0.89 m/s, 339° | 8 W/m² | - |
* Rain latest hour (hover to see other rain measurements)
** Current wind speed in m/s (hover to see current wind gust speed)